Weather History for Covington, KY

Change the Weather History Date:

Saturday, April 21, 2012

  Actual Average Record
Temperature  
Mean Temperature 45 °F 56 °F  
Max Temperature 49 °F 67 °F 86 °F (1902)
Min Temperature 40 °F 46 °F 30 °F (1981)
Degree Days  
Heating Degree Days 20 10  
Month to date heating degree days 225 268  
Since 1 July heating degree days 3872 4761  
Cooling Degree Days 0 1  
Month to date cooling degree days 7 9  
Year to date cooling degree days 40 9  
Moisture  
Dew Point 42 °F    
Average Humidity 86    
Maximum Humidity 100    
Minimum Humidity 71    
Precipitation  
Precipitation 0.10 in 0.14 in 1.99 in (2002)
Month to date precipitation 1.70 2.67  
Year to date precipitation 11.49 12.44  
Snow  
Snow 0.00 in 0.00 in 1.50 in (1901)
Month to date snowfall 0.0 0.5  
Since 1 July snowfall 5.6 22.1  
Snow Depth 0.00 in    
Sea Level Pressure  
Sea Level Pressure 29.89 in    
Wind  
Wind Speed 10 mph (NNW)    
Max Wind Speed 16 mph    
Max Gust Speed 21 mph    
Visibility 7 miles    
Events Rain    
T = Trace of Precipitation, MM = Missing Value Source: NWS Daily Summary

Daily Weather History Graph

Daily Weather History Graph

Search for Another Location

Airport:

Trip Planner

Search our weather history database for the weather conditions in past years. The results will help you decide how hot, cold, wet, or windy it might be!

Date:

Astronomy

Apr. 21, 2012 Rise Set
Actual Time 6:52 AM EDT 8:22 PM EDT
Civil Twilight 6:24 AM EDT 8:50 PM EDT
Nautical Twilight 5:51 AM EDT 9:24 PM EDT
Astronomical Twilight 5:15 AM EDT 10:00 PM EDT
Moon 6:48 AM EDT (4/21) 9:02 PM EDT (4/21)
Length of Visible Light 14h 25m
Length of Day
13h 29m
New Moon, 0% of the Moon is Illuminated
Apr 21
New Moon
Apr 29
First Quarter
May 5
Full
May 12
Last Quarter
May 20
New

Hourly Weather History & Observations

Time (EDT) Temp. Windchill Dew Point Humidity Pressure Visibility Wind Dir Wind Speed Gust Speed Precip Events Conditions
12:08 AM 51.8 °F - 48.2 °F 88% 29.82 in 10.0 mi NNW 13.8 mph - 0.00 in Rain Light Rain
12:24 AM 50.0 °F - 48.2 °F 94% 29.83 in 10.0 mi NNW 10.4 mph - 0.01 in Rain Light Rain
12:31 AM 50.0 °F - 48.2 °F 94% 29.84 in 10.0 mi NNW 11.5 mph - 0.01 in Rain Light Rain
12:52 AM 48.9 °F - 46.9 °F 93% 29.83 in 10.0 mi NW 10.4 mph - 0.01 in   Overcast
1:52 AM 46.9 °F - 45.0 °F 93% 29.85 in 10.0 mi NW 13.8 mph - 0.02 in Rain Light Rain
2:52 AM 46.0 °F 41.0 °F 44.1 °F 93% 29.84 in 6.0 mi NW 10.4 mph 20.7 mph 0.03 in Rain Light Rain
3:43 AM 46.4 °F 41.9 °F 44.6 °F 93% 29.85 in 9.0 mi NNW 9.2 mph - 0.02 in Rain Light Rain
3:52 AM 46.0 °F 41.0 °F 44.1 °F 93% 29.83 in 9.0 mi NNW 10.4 mph - 0.02 in Rain Light Rain
3:59 AM 46.4 °F 41.1 °F 44.6 °F 93% 29.84 in 8.0 mi NNW 11.5 mph - 0.00 in Rain Light Rain
4:15 AM 46.4 °F 41.1 °F 44.6 °F 93% 29.84 in 7.0 mi NNW 11.5 mph - 0.00 in Rain Light Rain
4:52 AM 45.0 °F 39.3 °F 44.1 °F 97% 29.83 in 5.0 mi NW 11.5 mph - 0.01 in Rain Light Rain
5:10 AM 44.6 °F 39.2 °F 44.6 °F 100% 29.85 in 6.0 mi NW 10.4 mph - 0.01 in Rain Light Rain
5:49 AM 44.6 °F 39.2 °F 44.6 °F 100% 29.85 in 2.5 mi NNW 10.4 mph - 0.01 in Rain Light Rain
5:52 AM 44.6 °F 38.8 °F 44.6 °F 100% 29.85 in 2.5 mi NW 11.5 mph - N/A   Overcast
6:14 AM 44.6 °F 39.2 °F 44.6 °F 100% 29.85 in 3.0 mi NW 10.4 mph - 0.00 in   Overcast
6:23 AM 44.6 °F 40.7 °F 44.6 °F 100% 29.86 in 2.5 mi NW 6.9 mph - 0.00 in   Overcast
6:52 AM 46.0 °F 41.9 °F 44.1 °F 93% 29.85 in 2.5 mi NW 8.1 mph - 0.00 in   Overcast
7:23 AM 46.4 °F 43.5 °F 44.6 °F 93% 29.87 in 3.0 mi North 5.8 mph - N/A   Overcast
7:45 AM 46.4 °F 42.9 °F 44.6 °F 93% 29.86 in 7.0 mi NNE 6.9 mph - 0.00 in Rain Light Rain
7:52 AM 46.0 °F 41.9 °F 44.1 °F 93% 29.84 in 7.0 mi NNE 8.1 mph - 0.00 in Rain Light Rain
8:52 AM 44.1 °F 37.4 °F 43.0 °F 96% 29.88 in 3.0 mi North 13.8 mph - 0.00 in   Overcast
9:05 AM 44.6 °F 38.4 °F 42.8 °F 93% 29.88 in 2.5 mi North 12.7 mph - N/A   Overcast
9:52 AM 43.0 °F 35.7 °F 41.0 °F 93% 29.90 in 4.0 mi North 15.0 mph - N/A   Overcast
10:52 AM 43.0 °F 36.4 °F 41.0 °F 93% 29.91 in 2.0 mi North 12.7 mph - 0.00 in Rain Light Rain
11:35 AM 44.6 °F 38.4 °F 41.0 °F 87% 29.93 in 4.0 mi North 12.7 mph - 0.01 in   Overcast
11:52 AM 44.1 °F 38.6 °F 41.0 °F 89% 29.94 in 5.0 mi North 10.4 mph - 0.01 in   Overcast
12:52 PM 44.6 °F 38.4 °F 42.8 °F 93% 29.93 in 6.0 mi North 12.7 mph - N/A   Overcast
1:52 PM 45.0 °F 40.1 °F 41.0 °F 86% 29.94 in 10.0 mi North 9.2 mph - N/A   Overcast
2:52 PM 46.0 °F 41.4 °F 39.9 °F 79% 29.95 in 10.0 mi North 9.2 mph - N/A   Overcast
3:06 PM 46.4 °F 42.9 °F 39.2 °F 76% 29.95 in 9.0 mi North 6.9 mph - N/A   Overcast
3:13 PM 46.4 °F 41.5 °F 39.2 °F 76% 29.95 in 10.0 mi NNW 10.4 mph - N/A   Overcast
3:52 PM 46.9 °F - 39.9 °F 77% 29.93 in 10.0 mi North 10.4 mph - N/A   Overcast
4:52 PM 46.9 °F - 39.9 °F 77% 29.94 in 10.0 mi North 10.4 mph - N/A   Overcast
5:52 PM 46.9 °F - 39.0 °F 74% 29.94 in 10.0 mi NNE 12.7 mph - N/A   Overcast
6:52 PM 46.9 °F - 39.0 °F 74% 29.94 in 10.0 mi North 10.4 mph - N/A   Overcast
7:52 PM 46.9 °F - 37.9 °F 71% 29.94 in 9.0 mi NE 6.9 mph - N/A   Overcast
8:52 PM 46.0 °F 41.4 °F 37.0 °F 71% 29.95 in 10.0 mi NE 9.2 mph - N/A   Overcast
8:58 PM 46.4 °F 42.9 °F 37.4 °F 71% 29.95 in 10.0 mi NE 6.9 mph - N/A   Overcast
9:52 PM 46.0 °F 40.6 °F 37.0 °F 71% 29.96 in 10.0 mi NNE 11.5 mph - N/A   Overcast
10:11 PM 46.4 °F 41.1 °F 37.4 °F 71% 29.96 in 10.0 mi NNE 11.5 mph - N/A   Overcast
11:26 PM 44.6 °F 39.2 °F 35.6 °F 71% 29.95 in 10.0 mi NE 10.4 mph - N/A   Scattered Clouds
11:52 PM 43.0 °F 38.8 °F 35.1 °F 74% 29.95 in 9.0 mi North 6.9 mph - N/A   Mostly Cloudy